COSMOS 341

Satellite information

Favourite Embed

Satellite Type and Status

PAYLOADIN ORBIT

Key statistics

Satellite COSMOS 341 at a glance.

Uptime

20226

Days in orbit

Revolutions

≈ 12.6

Per day

Orbit

LEO

Low Earth Orbit

Inclination

74.0

Latest

Satellite identification and parameters

Extended collection of information and parameters for COSMOS 341.

Object identification

Identified? True

Debris? False

Object name: COSMOS 341

International designator: 1970-036F

Object number (NORAD): 4388

Object ID (CCSDS): 4388

Country: COMMONWEALTH OF INDEPENDENT STATES (CIS)

Current information (Y/N): Y

RCS size: MEDIUM

Orbital parameters

Period: 113.893 minutes

Inclination: 74.0255 deg

SMA: 7783.194 km

Apoapsis: 1468.399 km

Periapsis: 1341.719 km

RAAN: 243.2788 deg

Eccentricy: 0.00813803

Argument of periapsis: 208.2404 deg

Mean anomaly: 271.9543 deg

Mean motion: 12.64346148 rev/day

Mean motion (dot): -0.00000019 rev/day2

B* drag term: -0.000009616614 1/REarth

Two-line elements (TLE)

Creation date: Sept. 8, 2025, 6:18 p.m.

Reference frame: TEME

Reference center: EARTH

Epoch: Sept. 8, 2025, 11:25 a.m. UTC

TLE line 0: 0 COSMOS 341

TLE line 1: 1 04388U 70036F 25251.47574561 -.00000019 00000-0 -96166-5 0 9998

TLE line 2: 2 04388 74.0255 243.2788 0081380 208.2404 271.9543 12.64346148555311

Live tracking on map

Real-time ground track for satellite COSMOS 341.

In-orbit conjunctions

A list of the most updated potential collisions computed for object COSMOS 341.

Target Orbit TCA Probability of collision Miss distance Type
DELTA 1 DEB SSO 2025-04-09 09:40:24 0.0002105174 763.0 (m) DEBRIS
DELTA 1 DEB SSO 2024-05-29 04:31:47 0.0001443021 843.0 (m) DEBRIS

Associated space launch

Military communications satellites

COSMOS 341 was lifted into orbit during the mission ‘Kosmos-3M | Strela-1M 1-8’, on board a Kosmos-3M space rocket.

The launch took place on April 25, 1970, 5:09 p.m. from 132/2.

For more information about the launch, click the button.

Launch to space Kosmos-3M | Strela-1M 1-8
Kosmos-3M | Strela-1M 1-8

Agency: N/A

Status: Launch Successful

Launch date: April 25, 1970, 5:09 p.m. UTC

Rocket: Kosmos-3M

Launch pad: 132/2

Location: Plesetsk Cosmodrome, Russian Federation

...

Latest news about this satellite

There are no fresh news available about this satellite. Check back as we update our databases every day.


Newsletter sign-up

Weekly statistics, charts and insights to help you stay on top of the space industry.